Meteo pe oră la Dziunin

Astăzi, 5 Martie, Vineri

Timp Temperatura Precipitaţii Vânt Presiune Umiditate
00:00 -4°C° 0 mm 3 m/s 753 mmHg 87%
01:00 -4°C° 0 mm 3 m/s 753 mmHg 88%
02:00 -4°C° 0 mm 3 m/s 753 mmHg 88%
03:00 -4°C° 0 mm 3 m/s 753 mmHg 88%
04:00 -4°C° 0 mm 3 m/s 753 mmHg 88%
05:00 -4°C° 0 mm 3 m/s 753 mmHg 87%
06:00 -3°C° 0 mm 2 m/s 754 mmHg 86%
07:00 -3°C° 0 mm 2 m/s 754 mmHg 84%
08:00 -1°C° 0 mm 3 m/s 755 mmHg 75%
09:00 0°C° 0 mm 3 m/s 755 mmHg 66%
10:00 0°C° 0 mm 4 m/s 756 mmHg 57%
11:00 +1°C° 0.1 mm 4 m/s 756 mmHg 51%
12:00 +1°C° 0.1 mm 4 m/s 756 mmHg 45%
13:00 +3°C° 0 mm 4 m/s 756 mmHg 39%
14:00 +3°C° 0.1 mm 4 m/s 757 mmHg 42%
15:00 +1°C° 0.1 mm 5 m/s 757 mmHg 44%
16:00 +1°C° 0.1 mm 5 m/s 757 mmHg 46%
17:00 0°C° 0 mm 4 m/s 758 mmHg 54%
18:00 -1°C° 0 mm 3 m/s 758 mmHg 61%
19:00 -2°C° 0 mm 3 m/s 758 mmHg 69%
20:00 -2°C° 0 mm 3 m/s 759 mmHg 70%
21:00 -2°C° 0 mm 2 m/s 759 mmHg 72%
22:00 -3°C° 0 mm 2 m/s 760 mmHg 74%
23:00 -3°C° 0 mm 2 m/s 760 mmHg 76%

Mâine, 6 Martie, Sâmbătă

Timp Temperatura Precipitaţii Vânt Presiune Umiditate
00:00 -3°C° 0 mm 2 m/s 760 mmHg 77%
01:00 -3°C° 0 mm 2 m/s 760 mmHg 78%
02:00 -3°C° 0 mm 2 m/s 760 mmHg 78%
03:00 -3°C° 0 mm 2 m/s 760 mmHg 78%
04:00 -3°C° 0 mm 2 m/s 760 mmHg 78%
05:00 -3°C° 0 mm 2 m/s 760 mmHg 78%
06:00 -4°C° 0 mm 3 m/s 760 mmHg 78%
07:00 -4°C° 0 mm 3 m/s 761 mmHg 78%
08:00 -1°C° 0 mm 3 m/s 761 mmHg 70%
09:00 -1°C° 0 mm 4 m/s 761 mmHg 62%
10:00 0°C° 0 mm 4 m/s 761 mmHg 55%
11:00 +1°C° 0 mm 4 m/s 760 mmHg 50%
12:00 +2°C° 0 mm 5 m/s 760 mmHg 45%
13:00 +3°C° 0 mm 5 m/s 760 mmHg 40%
14:00 +2°C° 0 mm 6 m/s 759 mmHg 44%
15:00 +2°C° 0 mm 6 m/s 759 mmHg 47%
16:00 +2°C° 0 mm 6 m/s 758 mmHg 51%
17:00 +1°C° 0 mm 6 m/s 758 mmHg 63%
18:00 -1°C° 0 mm 6 m/s 758 mmHg 75%
19:00 -2°C° 0 mm 6 m/s 757 mmHg 87%
20:00 -2°C° 0 mm 6 m/s 757 mmHg 85%
21:00 -1°C° 0 mm 6 m/s 757 mmHg 84%
22:00 -1°C° 0 mm 7 m/s 757 mmHg 82%
23:00 -2°C° 0 mm 7 m/s 756 mmHg 81%

Poimâine, 7 Martie, Duminică

Timp Temperatura Precipitaţii Vânt Presiune Umiditate
00:00 -2°C° 0 mm 7 m/s 756 mmHg 80%
01:00 -2°C° 0 mm 7 m/s 756 mmHg 79%
02:00 -2°C° 0 mm 7 m/s 755 mmHg 81%
03:00 -2°C° 0 mm 7 m/s 755 mmHg 84%
04:00 -4°C° 0 mm 8 m/s 754 mmHg 86%
05:00 -4°C° 0.1 mm 8 m/s 754 mmHg 88%
06:00 -4°C° 0.1 mm 8 m/s 754 mmHg 90%
07:00 -4°C° 0.1 mm 8 m/s 753 mmHg 92%
08:00 -2°C° 0 mm 8 m/s 753 mmHg 88%
09:00 -2°C° 0 mm 8 m/s 753 mmHg 84%
10:00 -1°C° 0 mm 8 m/s 753 mmHg 80%
11:00 -1°C° 0 mm 8 m/s 753 mmHg 82%
12:00 -1°C° 0 mm 8 m/s 753 mmHg 83%
13:00 -1°C° 0 mm 8 m/s 753 mmHg 84%
14:00 -1°C° 0.1 mm 7 m/s 753 mmHg 85%
15:00 -1°C° 0.1 mm 7 m/s 752 mmHg 87%
16:00 -1°C° 0.1 mm 7 m/s 752 mmHg 88%
17:00 -1°C° 0.3 mm 6 m/s 752 mmHg 91%
18:00 -2°C° 0.3 mm 6 m/s 752 mmHg 93%
19:00 -1°C° 0.3 mm 5 m/s 752 mmHg 96%
20:00 -2°C° 0.3 mm 4 m/s 752 mmHg 95%
21:00 -2°C° 0.3 mm 3 m/s 752 mmHg 93%
22:00 0°C° 0.3 mm 1 m/s 752 mmHg 92%
23:00 -3°C° 0 mm 2 m/s 752 mmHg 90%

8 Martie, Luni

Timp Temperatura Precipitaţii Vânt Presiune Umiditate
00:00 -3°C° 0 mm 2 m/s 752 mmHg 89%
01:00 -4°C° 0 mm 2 m/s 752 mmHg 88%
02:00 -4°C° 0 mm 2 m/s 752 mmHg 86%
03:00 -4°C° 0 mm 2 m/s 752 mmHg 85%
04:00 -4°C° 0 mm 2 m/s 752 mmHg 83%
05:00 -4°C° 0 mm 2 m/s 753 mmHg 81%
06:00 -4°C° 0 mm 2 m/s 753 mmHg 78%
07:00 -3°C° 0 mm 2 m/s 753 mmHg 75%
08:00 -2°C° 0 mm 3 m/s 754 mmHg 69%
09:00 -1°C° 0 mm 3 m/s 754 mmHg 62%
10:00 0°C° 0 mm 3 m/s 755 mmHg 55%
11:00 +1°C° 0 mm 3 m/s 755 mmHg 54%
12:00 +1°C° 0 mm 3 m/s 755 mmHg 53%
13:00 +2°C° 0 mm 3 m/s 756 mmHg 52%
14:00 +2°C° 0 mm 3 m/s 756 mmHg 54%
15:00 +1°C° 0 mm 3 m/s 755 mmHg 56%
16:00 +1°C° 0 mm 3 m/s 755 mmHg 58%
17:00 0°C° 0 mm 3 m/s 756 mmHg 65%
18:00 -2°C° 0 mm 2 m/s 756 mmHg 72%
19:00 -3°C° 0 mm 2 m/s 756 mmHg 79%
20:00 -3°C° 0 mm 2 m/s 756 mmHg 80%
21:00 -4°C° 0 mm 2 m/s 757 mmHg 81%
22:00 -4°C° 0 mm 2 m/s 757 mmHg 83%
23:00 -4°C° 0 mm 2 m/s 757 mmHg 82%

9 Martie, Marţi

Timp Temperatura Precipitaţii Vânt Presiune Umiditate
00:00 -2°C° 0 mm 1 m/s 757 mmHg 81%
01:00 -2°C° 0 mm 1 m/s 757 mmHg 80%
02:00 -2°C° 0 mm 1 m/s 757 mmHg 80%
03:00 -4°C° 0 mm 2 m/s 757 mmHg 79%
04:00 -4°C° 0 mm 2 m/s 757 mmHg 78%
05:00 -4°C° 0 mm 2 m/s 757 mmHg 78%
06:00 -4°C° 0 mm 2 m/s 757 mmHg 77%
07:00 -4°C° 0 mm 2 m/s 757 mmHg 77%
08:00 -3°C° 0 mm 2 m/s 757 mmHg 71%
09:00 -1°C° 0 mm 3 m/s 757 mmHg 65%
10:00 0°C° 0 mm 3 m/s 757 mmHg 60%
11:00 +1°C° 0 mm 3 m/s 757 mmHg 55%
12:00 +2°C° 0 mm 3 m/s 757 mmHg 51%
13:00 +3°C° 0 mm 3 m/s 756 mmHg 47%
14:00 +3°C° 0 mm 3 m/s 756 mmHg 49%
15:00 +3°C° 0 mm 3 m/s 755 mmHg 51%
16:00 +3°C° 0 mm 3 m/s 755 mmHg 52%
17:00 +2°C° 0 mm 3 m/s 755 mmHg 59%
18:00 0°C° 0 mm 3 m/s 755 mmHg 66%
19:00 -1°C° 0 mm 3 m/s 755 mmHg 73%
20:00 -1°C° 0 mm 3 m/s 755 mmHg 80%
21:00 -1°C° 0 mm 3 m/s 755 mmHg 88%
22:00 -1°C° 0 mm 3 m/s 754 mmHg 95%
23:00 -1°C° 0 mm 3 m/s 754 mmHg 96%

10 Martie, Miercuri

Timp Temperatura Precipitaţii Vânt Presiune Umiditate
00:00 -1°C° 0 mm 4 m/s 754 mmHg 96%
01:00 -1°C° 0 mm 4 m/s 753 mmHg 97%
02:00 -1°C° 0 mm 4 m/s 753 mmHg 96%
03:00 0°C° 0 mm 5 m/s 753 mmHg 96%
04:00 0°C° 0 mm 5 m/s 752 mmHg 95%
05:00 0°C° 0 mm 5 m/s 752 mmHg 95%
06:00 0°C° 0 mm 5 m/s 752 mmHg 95%
07:00 0°C° 0 mm 4 m/s 751 mmHg 95%
08:00 +1°C° 0 mm 5 m/s 751 mmHg 92%
09:00 +1°C° 0 mm 5 m/s 751 mmHg 90%
10:00 +2°C° 0 mm 5 m/s 751 mmHg 87%
11:00 +3°C° 0 mm 6 m/s 750 mmHg 81%
12:00 +3°C° 0 mm 6 m/s 749 mmHg 75%
13:00 +4°C° 0 mm 7 m/s 749 mmHg 69%
14:00 +4°C° 0 mm 6 m/s 748 mmHg 68%
15:00 +4°C° 0 mm 6 m/s 747 mmHg 68%
16:00 +5°C° 0 mm 6 m/s 746 mmHg 67%
17:00 +4°C° 0 mm 6 m/s 746 mmHg 72%
18:00 +4°C° 0 mm 7 m/s 745 mmHg 76%
19:00 +3°C° 0 mm 7 m/s 744 mmHg 80%
20:00 +3°C° 0.1 mm 7 m/s 743 mmHg 83%
21:00 +3°C° 0.1 mm 7 m/s 742 mmHg 86%
22:00 +3°C° 0.1 mm 7 m/s 742 mmHg 89%
23:00 +2°C° 0.2 mm 8 m/s 741 mmHg 89%
Arată mai mult

Formular de consimțământ

Meteoprog și furnizorii noștri de servicii pot stoca și accesa date personale, precum cookies, identificatori de dispozitiv sau alte tehnologii similare pe dispozitivul dumneavoastră și procesa astfel de date pentru a personaliza conținutul și reclamele, dar și pentru a oferi caracteristici de social media și pentru a analiza traficul.

  • Stocarea și/sau accesarea informațiilor pe dispozitivul dumneavoastră

    Cookies, identificatori de dispozitiv sau alte informații pot fi stocate sau accesate pe dispozitiv în scopurile indicate mai sus.

  • Reclame și conținut personalizat, evaluarea reclamelor și a conținutului, informații despre audiențe și dezvoltarea produselor

    Reclamele și conținutul pot fi personalizate pe baza unui profil. Pot fi adăugate date suplimentare pentru a personaliza mai bine reclamele și conținutul. Performanța reclamelor și conținutului poate fi măsurată. Pot fi obținute informații despre utilizatorii care au văzut reclamele și conținutul. Aceste date pot fi utilizate pentru a dezvolta sau îmbunătăți experiența utilizatorilor, sistemele și software-ul.

Dând clic pe ‘Sunt de acord’, permiteți utilizarea cookie-urilor menționate, a identificatorilor de dispozitiv, balizelor web sau altor tehnologii similare. Setările pot fi modificate din browser-ul dispozitivului dumneavoastră.

În anumite scopuri, interesele legitime pot prima asupra consimțământului. Puteți citi mai multe informații în acest sens în Politica privind Confidențialitatea Datelor și Cookie.